Theta_e
310 308 310 311 313 316 318 319 320 319 319 319 320 320 321 322 321 322 323 323 324 325 327 328 327 327 327 327 326 327 327 326 325 325 325 325 324 324 324 325 325 325 324 325 326 323 325 324 323 321 319 318 317 317 319 318 314 312 310 307 311 313 312 309 306 305 306 310 308 308 309 308 307 308 307 306 305 306 303 303 303 304 305 304 305
298 299 302 306 310 312 315 317 317 318 319 319 319 321 321 322 322 323 322 323 325 326 327 327 329 329 328 328 328 328 327 326 327 327 328 328 328 327 327 327 326 325 324 324 324 323 323 322 321 322 322 319 316 314 317 314 314 312 313 314 311 314 312 307 306 309 309 309 310 310 308 307 308 306 303 304 304 305 304 304 304 303 304 304 304
297 298 298 302 305 309 313 316 318 320 320 319 320 320 320 321 322 322 322 323 324 325 326 326 326 326 327 325 329 325 325 328 328 326 326 327 328 329 329 328 327 325 325 324 325 324 324 324 323 324 322 320 319 317 315 316 317 315 314 316 313 309 311 307 309 313 312 308 309 307 303 307 305 301 296 299 304 303 302 303 302 301 302 303 302
296 297 298 298 302 306 309 313 316 318 318 318 319 320 321 320 322 322 322 322 323 324 322 326 325 325 324 321 322 326 322 317 321 319 323 325 327 328 329 329 328 327 326 325 324 325 325 325 325 322 320 314 316 317 318 319 317 315 314 313 314 314 309 308 310 312 313 311 307 306 306 303 303 301 304 307 299 300 299 301 299 302 301 301 301
295 296 296 296 298 303 308 311 314 316 317 319 319 320 322 321 322 322 323 322 323 322 323 323 321 318 319 316 316 318 317 316 319 323 325 323 325 325 326 327 328 328 327 326 324 325 325 325 322 320 317 318 319 320 320 318 317 318 317 314 314 315 313 312 310 310 311 312 312 306 304 301 302 305 306 308 304 307 302 304 302 301 302 301 299
295 295 296 296 297 300 304 307 311 314 316 318 320 321 321 322 322 322 322 322 323 323 323 323 322 324 322 323 321 322 323 321 321 323 322 322 324 323 322 325 325 325 326 327 326 324 325 325 323 321 320 320 320 320 320 319 318 317 318 317 315 315 315 313 312 309 309 309 311 312 310 307 305 305 305 302 307 308 306 304 304 304 302 301 303
293 293 294 293 295 296 300 305 309 312 315 317 318 319 320 321 321 321 322 322 322 322 322 321 323 323 324 325 325 324 324 325 322 320 324 321 321 322 324 321 324 325 324 325 325 324 324 325 322 321 319 320 317 320 319 318 317 317 314 314 315 313 313 311 311 310 306 306 308 309 309 307 307 304 301 302 300 303 305 304 304 303 303 303 303
295 295 294 294 294 296 298 302 308 312 314 315 316 317 319 320 320 320 321 320 322 321 321 322 323 323 323 323 323 324 323 323 318 319 319 318 320 320 320 320 321 322 324 324 324 324 323 322 322 321 321 320 317 317 316 315 315 312 312 313 314 313 312 312 309 308 307 308 306 306 305 304 304 303 303 303 300 296 300 302 301 302 303 302 302
292 293 294 294 294 295 296 298 304 309 309 312 314 316 318 319 318 319 320 320 320 320 320 321 322 324 323 323 322 321 321 318 313 310 316 312 317 311 315 317 318 319 321 322 321 322 320 321 321 320 319 318 315 316 315 315 314 314 314 314 313 311 310 308 308 309 309 307 306 305 304 303 302 300 299 301 300 298 298 299 298 298 298 299 297
291 293 294 295 294 294 294 295 298 304 307 307 307 309 312 314 315 316 318 319 319 319 320 321 322 321 323 322 322 320 315 309 311 310 312 311 316 312 314 315 316 316 315 317 319 319 320 319 319 318 317 316 313 313 312 312 311 313 313 312 312 310 308 310 309 309 308 308 307 305 302 302 299 297 300 302 300 301 297 296 296 293 291 291 295
291 292 292 293 292 291 293 296 298 298 302 305 308 310 312 313 315 315 318 318 318 319 319 320 321 322 322 322 321 320 315 314 312 311 309 311 314 312 313 314 313 313 312 312 314 317 317 316 317 316 316 312 314 314 313 312 311 312 311 310 310 309 308 308 308 308 308 306 306 305 304 304 302 300 301 300 299 295 295 293 293 292 291 291 291
288 289 291 291 291 292 293 295 297 300 299 303 307 308 310 312 314 315 315 316 316 317 318 320 320 321 321 321 321 320 316 315 316 315 312 314 314 313 311 310 309 309 310 311 311 312 313 313 312 313 312 313 312 312 312 312 311 311 310 308 307 307 306 305 305 305 305 304 304 305 304 304 303 301 301 300 298 296 295 292 291 291 290 291 293
290 290 290 291 292 293 294 295 294 297 300 302 304 306 307 309 311 313 314 313 315 316 317 318 318 319 320 320 320 319 317 316 317 316 314 316 314 312 310 310 307 308 307 310 307 309 310 310 310 309 308 307 307 307 306 307 307 307 307 305 305 305 304 304 303 302 302 301 301 301 301 300 300 300 299 298 298 297 294 290 288 290 288 288 287
291 292 291 292 293 294 295 296 296 296 297 299 299 300 301 304 306 310 313 311 312 313 315 316 317 318 318 319 319 317 316 316 316 315 312 315 314 313 312 311 310 312 308 309 307 306 306 307 306 305 305 304 303 302 301 298 299 300 300 301 300 300 299 299 299 298 298 298 299 297 297 297 297 298 297 297 295 293 289 289 288 287 287 285 286
290 291 292 292 292 290 292 292 293 293 294 294 294 295 296 300 303 306 309 307 309 311 313 315 315 315 316 317 318 316 317 315 315 314 312 312 312 312 312 311 312 308 308 304 301 304 303 304 303 303 302 301 300 299 299 298 298 298 297 296 296 296 294 294 293 294 294 295 295 295 294 295 295 295 295 294 295 294 292 291 289 285 284 283 282
290 289 291 290 289 288 289 290 291 292 290 291 293 293 295 297 298 302 307 307 307 308 313 315 314 314 314 315 316 314 312 314 312 310 311 313 312 313 311 310 308 305 302 301 300 302 301 301 301 300 299 297 297 297 297 297 297 296 295 295 295 294 291 291 291 291 291 292 292 292 291 291 291 290 291 292 293 293 293 292 291 289 285 282 284
290 289 289 289 287 288 288 287 286 288 290 293 294 293 295 295 295 298 300 301 304 306 311 313 314 313 312 314 313 312 312 312 312 310 310 310 311 310 308 305 303 302 300 300 299 299 299 299 297 295 295 294 295 295 295 295 294 293 292 292 292 291 290 290 290 289 288 290 290 289 289 288 287 287 288 288 290 291 291 292 293 290 289 285 282
291 288 287 287 287 287 289 288 289 291 290 289 291 294 294 293 295 299 301 301 303 305 308 310 312 312 312 312 312 313 312 313 312 310 309 308 307 305 303 301 301 300 299 298 298 297 296 294 294 292 292 292 292 291 291 291 289 288 289 288 288 287 285 285 285 286 286 287 286 286 285 285 286 284 284 285 285 287 288 289 290 290 291 287 285
291 291 290 289 288 289 289 291 290 290 290 290 293 295 294 293 293 299 301 303 305 305 306 308 311 312 312 312 312 312 312 312 311 309 307 307 304 303 303 301 299 298 297 297 296 293 292 290 291 289 289 289 288 288 287 287 287 286 286 284 284 283 282 282 284 284 283 282 283 283 282 282 282 282 283 283 282 283 284 286 288 289 289 289 287
291 291 291 290 290 289 289 289 290 291 291 292 294 296 296 296 297 300 302 304 305 305 305 307 307 309 309 309 310 311 310 310 308 307 307 305 303 302 300 299 298 297 297 296 293 291 290 289 288 288 287 286 286 286 286 286 285 284 284 283 282 284 283 282 282 282 283 282 281 282 282 281 281 281 281 281 281 281 282 283 283 285 287 287 287
290 291 291 290 290 290 289 288 287 287 289 293 296 299 299 299 300 301 302 304 304 305 305 306 306 307 307 308 307 308 307 307 306 306 306 303 301 300 299 298 295 295 294 292 290 290 289 288 288 288 287 286 286 285 285 285 284 284 283 283 282 283 283 282 282 282 281 281 282 281 281 281 282 281 280 280 281 281 281 281 281 282 282 281 282
289 288 288 289 287 287 287 288 287 288 291 293 297 299 299 300 302 302 303 304 304 304 305 305 306 306 307 306 306 306 305 305 305 303 301 299 298 297 295 294 294 291 291 290 289 288 288 288 288 287 286 286 284 283 284 284 284 284 283 282 282 283 283 282 281 281 281 281 281 281 280 280 281 280 280 280 280 281 281 281 281 280 280 280 281
290 289 288 287 287 287 288 287 288 288 292 292 294 299 300 300 301 301 303 303 304 304 304 305 305 305 304 304 302 301 301 301 300 298 297 296 295 293 293 294 291 289 288 289 288 288 288 287 287 286 285 285 285 284 284 285 284 284 284 283 282 282 282 282 281 280 280 281 280 280 280 280 280 281 281 280 281 281 281 280 280 280 279 279 280
289 288 287 288 286 286 287 288 289 288 289 292 296 298 300 300 301 301 301 302 302 302 303 303 302 301 300 299 299 298 298 298 297 296 295 293 292 292 291 292 289 288 287 286 287 287 287 286 286 285 285 284 284 284 284 284 284 284 283 283 282 282 281 281 281 281 280 281 280 280 280 280 281 280 280 280 281 281 281 280 279 280 279 280 279
289 289 289 288 287 287 288 289 289 287 286 288 294 297 298 298 298 300 299 299 299 300 300 299 298 297 296 297 296 296 297 296 294 293 292 291 291 290 290 289 288 287 287 286 286 286 286 285 285 284 284 284 284 284 284 283 283 283 283 283 282 282 282 281 281 281 282 281 281 280 280 280 280 280 279 279 280 280 280 280 280 279 280 280 279
288 289 288 289 289 287 287 287 287 285 286 289 292 294 295 296 297 297 298 295 296 297 297 297 297 296 295 295 294 295 294 293 292 291 291 291 290 290 289 287 288 287 286 286 285 285 285 284 284 283 283 283 283 283 283 283 283 283 283 282 282 282 282 281 281 281 281 281 281 280 280 280 280 279 278 279 279 279 279 280 279 279 279 279 278
288 288 288 287 287 288 288 287 288 286 286 286 289 293 294 294 294 294 295 296 295 296 296 296 296 296 295 293 293 293 292 292 291 291 290 290 289 288 288 287 286 286 285 284 284 283 283 283 283 283 283 283 283 283 283 283 283 282 282 282 282 282 281 281 281 281 281 281 281 280 280 280 279 279 279 279 279 279 280 279 278 278 278 278 278
286 287 288 289 289 288 287 287 287 287 286 285 286 290 294 295 294 293 293 294 295 295 295 294 295 294 293 292 291 290 291 290 290 290 289 289 288 286 286 285 285 285 284 283 283 283 282 282 282 282 283 283 283 283 283 283 282 282 282 282 281 281 281 281 280 280 280 280 280 280 279 279 279 279 280 280 280 279 278 277 278 278 279 279 279
289 290 290 289 289 289 288 287 287 286 286 286 286 287 289 291 293 294 294 294 293 294 293 293 292 293 291 291 290 289 289 289 288 288 287 286 285 284 284 284 283 283 283 282 282 282 282 282 282 282 283 283 283 283 283 283 282 282 282 281 281 280 280 280 279 279 280 280 279 279 279 280 281 282 282 281 282 281 279 277 278 279 279 279 279
291 292 291 291 290 289 288 287 287 287 287 287 287 287 289 292 292 292 293 293 292 293 292 292 292 291 290 289 289 289 288 288 287 286 285 284 284 284 283 283 282 282 282 282 282 282 282 281 281 281 283 284 284 284 285 286 285 282 281 281 281 280 280 279 279 279 279 279 279 279 279 281 281 281 280 281 281 281 282 281 280 280 280 280 280
292 292 291 290 289 288 288 288 288 288 288 288 288 288 288 289 292 292 292 292 293 292 292 292 291 290 289 289 288 287 287 287 286 285 284 283 283 283 282 282 281 281 281 281 281 281 281 281 281 282 283 284 285 286 288 287 286 284 281 280 280 280 279 279 279 279 278 278 278 279 279 280 280 280 279 280 280 281 281 282 283 283 283 281 279
292 292 290 289 289 289 289 289 290 289 288 289 288 288 288 289 291 291 292 290 291 292 292 291 290 288 288 288 287 286 286 285 284 283 283 283 282 282 282 281 281 280 280 280 280 280 280 280 281 281 282 283 284 288 288 286 285 284 282 280 280 279 279 279 279 278 278 278 278 278 279 279 279 279 278 277 278 280 281 282 283 283 283 283 283
291 292 291 291 292 292 292 291 291 290 290 289 289 289 289 290 290 291 290 289 291 291 291 290 288 288 287 287 286 286 285 284 283 283 282 282 282 281 281 281 280 280 280 280 280 280 279 279 280 281 281 282 284 288 287 286 285 284 283 281 279 279 278 278 278 278 278 278 278 277 277 278 278 278 278 277 277 278 281 282 283 283 282 282 282
290 291 292 292 292 292 292 291 291 290 289 288 289 289 289 288 288 288 289 289 290 290 290 289 287 287 287 286 286 285 284 283 282 282 282 281 281 281 280 280 280 279 279 279 279 279 279 279 279 280 281 282 283 287 287 286 284 284 283 281 279 279 278 278 278 278 278 278 277 277 277 276 277 277 277 277 278 279 280 281 281 280 280 280 281
290 290 290 291 292 292 291 289 287 287 287 287 287 287 287 287 287 286 287 288 289 289 288 287 287 286 286 285 284 284 283 282 281 281 281 281 281 280 279 279 279 279 279 279 278 278 278 278 279 280 281 281 283 287 286 285 284 283 282 280 278 279 278 278 278 278 278 278 277 277 277 276 276 276 277 279 280 281 281 280 279 279 279 279 279
290 290 291 291 291 291 290 289 288 288 288 288 288 288 287 287 286 287 286 286 287 287 287 286 286 285 284 284 283 283 282 281 281 281 281 280 280 279 279 278 278 278 278 278 277 278 277 277 278 279 280 280 283 286 285 285 284 283 281 279 278 278 277 277 278 278 278 278 277 277 277 276 276 276 278 282 283 282 280 279 278 278 278 278 277
290 290 290 289 289 289 290 288 287 288 288 288 288 288 288 286 286 286 286 285 285 285 285 285 285 284 284 283 283 283 282 281 281 280 280 280 279 278 278 278 278 278 278 277 277 277 277 277 277 278 278 279 281 284 285 284 283 282 279 278 278 277 277 277 277 277 277 277 277 277 277 276 276 276 279 283 283 282 279 278 277 276 275 274 274
289 287 286 286 286 286 286 289 287 288 288 288 287 288 287 286 286 285 285 285 285 285 285 285 285 284 283 283 283 282 282 281 281 280 280 279 278 278 278 278 278 277 277 277 277 276 276 277 276 276 277 278 279 282 284 284 282 281 279 277 277 277 277 277 277 277 277 277 277 277 278 276 276 277 281 283 283 281 278 278 277 274 272 272 274
287 287 288 287 286 286 285 286 286 287 287 286 287 287 287 286 285 285 285 285 285 286 285 285 284 283 283 282 282 282 281 281 280 280 279 278 278 278 277 277 277 277 276 276 276 276 275 275 276 276 277 276 277 281 283 283 282 281 278 277 277 277 277 277 276 276 277 276 276 277 278 278 278 280 282 282 282 280 278 277 275 273 272 273 276
284 283 285 286 285 286 285 286 286 287 285 286 286 286 286 286 285 284 284 285 286 286 285 283 283 282 281 281 281 280 280 280 279 278 278 277 277 276 276 276 276 276 276 276 275 275 274 275 275 275 275 275 276 277 281 283 282 281 280 277 277 276 276 276 276 276 275 276 276 276 277 278 280 281 282 281 281 281 278 276 274 273 273 274 277
284 285 285 284 284 286 287 286 286 285 285 285 286 286 286 285 284 283 284 286 285 283 283 283 282 281 280 280 280 280 279 279 279 278 278 276 276 276 276 276 275 275 275 275 274 274 274 273 273 274 274 274 275 277 280 282 282 282 281 279 277 277 277 276 275 275 275 274 274 275 275 278 280 281 280 280 280 280 279 276 275 275 276 277 277
281 281 282 284 284 285 286 285 284 284 285 285 286 286 285 285 284 284 285 283 283 282 282 281 281 280 280 279 279 279 279 278 277 277 276 276 275 276 276 275 275 275 274 273 273 273 273 273 273 273 274 275 276 276 278 280 281 282 281 280 277 278 278 276 275 275 275 274 274 275 275 278 280 279 278 279 279 278 278 276 276 278 278 277 273
283 284 283 283 284 284 283 283 282 283 284 285 285 285 285 284 285 285 282 282 281 281 281 280 279 279 278 278 277 277 277 277 276 276 276 275 274 274 274 274 274 273 273 272 272 272 272 272 272 273 274 274 275 276 277 277 280 281 281 281 280 279 280 277 275 274 274 274 275 276 277 278 278 277 277 278 277 277 276 275 277 276 276 275 271
280 280 281 281 282 282 282 280 280 282 283 284 285 285 285 284 284 280 280 280 280 279 279 279 278 277 277 276 276 276 275 275 275 275 274 274 273 273 273 273 273 273 273 272 272 272 272 272 272 272 273 273 274 274 276 277 278 280 280 280 280 280 279 277 277 275 275 275 275 277 277 277 276 276 276 276 276 275 274 275 275 274 273 271 267
281 281 279 280 281 280 280 279 279 280 281 283 284 285 283 283 281 279 280 279 279 278 278 277 277 276 276 275 274 274 274 274 274 275 274 273 273 273 273 272 273 273 273 273 273 273 273 273 272 272 272 273 273 273 273 276 278 278 279 279 279 279 279 279 275 275 276 276 277 277 276 275 275 275 275 274 273 272 273 273 273 272 269 264 264
278 278 279 278 277 276 277 278 278 277 279 280 281 283 283 282 277 278 279 279 278 277 277 276 275 275 274 274 274 273 273 273 273 274 274 274 274 273 273 272 272 273 274 274 273 273 273 273 273 272 272 272 272 272 273 274 276 277 277 278 278 278 277 277 277 275 276 276 275 274 274 273 272 272 270 267 268 267 271 271 270 268 264 263 263
278 278 275 276 275 276 277 276 277 276 276 277 277 278 278 276 277 277 278 277 277 277 276 275 275 274 273 273 274 273 272 272 271 271 271 273 273 273 273 273 273 273 273 274 273 273 273 273 272 272 272 271 271 271 272 273 273 274 275 276 276 275 277 276 274 274 272 269 270 270 269 271 271 271 271 270 269 268 265 264 263 262 262 262 263
274 274 274 275 276 277 275 274 277 275 275 275 276 276 273 274 275 276 276 276 277 276 276 274 274 273 273 273 273 273 273 272 272 272 272 272 272 273 274 274 274 274 274 274 273 273 273 272 272 272 271 270 270 270 271 272 273 274 274 275 274 274 274 272 272 272 268 268 264 269 267 264 264 263 263 261 261 261 262 262 261 260 260 262 265
275 273 273 276 275 275 274 273 275 274 274 274 274 272 271 274 275 275 276 276 276 275 274 273 272 272 272 272 272 272 272 272 272 271 272 273 273 273 274 274 275 275 277 276 275 275 274 275 273 272 270 270 269 270 271 275 275 276 275 274 274 274 273 272 273 272 265 263 261 260 260 261 261 261 261 260 259 258 260 260 259 260 259 260 260
273 272 272 274 273 273 273 274 274 272 273 273 270 270 270 273 274 275 276 276 275 274 272 272 272 272 272 272 271 271 271 271 271 271 271 269 275 276 275 274 274 276 276 277 278 275 275 275 274 273 273 272 271 272 275 277 278 278 278 277 276 276 275 273 274 273 266 257 258 257 258 258 259 258 258 259 259 258 258 259 259 263 261 259 261
272 273 272 273 273 272 272 272 271 270 271 270 270 269 270 271 272 274 275 276 274 274 273 272 271 272 272 272 271 271 271 271 271 271 271 271 270 272 276 276 276 276 277 277 277 277 277 276 274 271 272 275 276 277 278 278 278 278 277 277 276 276 276 275 274 266 259 257 257 258 258 258 259 258 258 258 258 257 258 258 258 259 259 260 261
Wind_Speed
10 4 6 7 8 8 8 7 8 7 7 8 9 10 10 11 9 11 8 7 7 7 7 8 7 6 6 8 8 5 5 5 6 5 5 6 6 6 5 5 4 5 5 4 6 6 7 7 6 3 3 3 4 6 4 3 3 3 1 1 2 3 4 2 2 2 2 5 2 3 5 4 6 7 4 5 5 5 3 4 4 5 5 5 5
6 6 6 6 8 8 8 8 8 10 11 10 11 13 11 10 12 11 8 9 9 10 9 8 9 8 7 7 5 5 5 6 6 5 7 6 7 7 6 6 5 5 5 4 5 3 3 3 4 5 5 4 4 3 2 3 2 2 2 2 2 3 4 1 2 1 2 1 4 6 2 4 6 3 3 4 5 5 4 4 4 4 6 6 6
6 9 6 6 8 8 8 9 10 13 12 13 12 11 11 11 11 9 9 10 9 10 9 10 7 7 7 5 7 5 5 7 7 6 6 7 7 8 7 6 5 4 4 5 5 4 4 3 4 5 4 4 4 4 3 4 4 3 3 3 3 2 4 1 1 3 3 1 2 2 4 8 3 2 2 2 5 4 3 5 4 4 5 5 5
12 11 12 9 7 7 6 8 11 11 10 8 10 12 11 10 10 10 10 10 9 10 10 9 8 7 6 5 5 6 5 4 5 4 5 5 5 5 6 7 5 5 4 4 4 4 4 5 6 4 5 4 4 4 5 5 4 3 3 4 3 3 1 1 2 4 3 0 3 1 2 1 6 1 7 5 0 3 2 3 2 4 5 6 6
12 11 10 7 8 11 13 12 8 9 11 12 12 12 10 13 12 12 11 10 9 9 10 8 6 5 4 2 3 2 0 3 4 5 5 4 4 5 4 4 6 6 6 6 6 6 5 6 4 4 4 4 4 5 5 4 3 4 4 3 4 4 2 1 2 1 1 0 0 2 2 1 1 4 7 6 4 8 5 5 4 4 4 4 5
11 12 12 9 10 8 7 7 9 10 11 12 11 12 11 11 11 10 9 8 10 10 10 9 9 9 7 7 7 6 7 6 7 7 5 4 4 3 4 5 4 4 6 7 8 6 7 6 7 6 5 3 3 2 2 2 2 3 4 4 4 4 3 0 0 1 1 1 1 0 2 2 4 2 2 5 4 5 5 7 9 8 6 7 9
9 9 9 7 9 8 10 10 11 11 13 11 10 11 12 11 11 11 10 9 9 9 9 9 9 9 11 12 11 10 10 8 5 4 5 4 4 5 4 3 4 5 5 5 4 5 4 5 3 2 2 3 3 3 3 3 2 2 2 3 3 2 3 2 1 0 1 2 1 1 1 0 1 1 2 3 7 1 2 7 8 8 9 8 9
11 12 12 11 8 10 13 13 12 15 13 9 9 9 12 13 11 11 10 10 9 9 10 11 11 10 11 11 10 10 10 9 7 5 5 6 6 5 4 4 5 5 6 5 6 5 5 4 3 3 3 3 4 3 3 3 4 3 2 3 4 3 3 4 3 1 2 1 1 2 1 1 1 3 3 1 3 8 9 4 4 5 8 7 7
8 9 11 12 12 12 11 10 11 8 6 8 10 11 10 9 10 9 10 9 8 10 11 11 11 12 11 10 10 8 8 6 5 4 6 4 5 3 4 4 5 5 5 5 5 4 4 4 4 4 4 5 5 4 4 5 5 5 5 5 4 3 2 2 3 3 4 2 1 1 0 1 1 1 1 2 3 6 8 5 7 4 4 8 5
7 11 12 11 10 9 8 6 4 8 7 6 6 5 6 6 8 9 10 9 9 10 11 12 12 10 10 10 12 9 6 4 5 5 5 5 6 5 4 4 4 3 3 3 4 4 5 5 5 5 4 5 6 5 3 5 5 5 5 4 5 6 2 3 5 3 3 3 3 2 2 2 3 3 2 3 2 4 6 9 8 9 10 5 8
7 9 10 10 5 5 4 8 8 4 6 6 7 8 7 8 9 11 11 9 9 11 11 12 11 11 11 12 12 11 9 8 7 6 5 5 6 5 5 5 4 4 3 2 3 4 5 5 7 6 6 5 7 7 4 4 5 6 5 5 4 4 4 5 6 4 4 4 4 4 3 3 2 1 3 3 3 3 5 7 8 5 8 13 2
6 7 9 7 6 5 3 6 6 7 5 7 7 7 9 9 9 11 9 10 9 10 11 12 11 12 11 12 12 11 11 10 10 10 9 9 8 7 4 4 4 4 4 4 4 5 5 5 5 6 5 5 5 4 4 4 4 5 5 5 4 5 4 5 5 4 4 4 4 4 4 3 3 3 3 3 3 4 4 7 8 7 6 6 8
7 7 7 6 7 7 7 6 5 6 8 7 8 7 7 7 9 11 11 9 10 10 12 12 11 11 11 11 11 10 10 10 10 10 9 9 7 7 7 6 5 5 4 6 3 5 5 7 6 7 5 4 5 4 3 3 4 3 4 5 5 4 4 5 5 4 4 4 3 4 4 4 5 4 3 2 2 2 3 5 4 4 6 9 4
7 6 6 6 7 6 6 6 6 6 5 6 5 5 5 6 6 9 10 8 7 8 10 10 11 11 10 11 10 9 10 10 9 9 9 8 8 9 9 8 8 8 8 6 6 5 5 4 6 6 5 6 6 5 5 4 4 4 5 6 6 4 5 6 6 5 5 5 4 5 4 4 3 3 2 2 2 2 2 4 8 4 4 8 4
5 5 5 5 5 4 4 3 4 4 4 4 4 4 4 6 6 8 8 7 8 9 9 10 10 9 9 9 9 8 9 9 8 8 9 8 7 9 8 8 8 7 8 6 5 5 6 6 5 7 7 6 5 5 5 5 5 6 6 6 5 4 5 5 5 6 6 5 6 5 4 4 3 3 3 3 2 2 3 4 5 10 8 3 3
5 5 5 4 4 3 3 2 2 1 2 1 3 4 4 6 5 7 8 7 7 8 8 9 9 8 8 9 10 9 8 7 6 5 6 8 9 9 9 8 6 7 5 7 5 6 7 7 6 7 6 6 5 6 6 6 6 6 6 7 7 4 7 8 5 6 7 6 6 5 4 4 3 3 4 3 3 3 2 3 3 3 5 11 9
5 4 4 4 3 3 3 3 2 2 2 4 4 4 5 5 5 5 5 4 6 7 8 8 8 8 9 9 8 8 8 9 9 8 9 7 8 7 8 6 6 7 8 6 7 5 6 7 7 6 6 6 6 6 6 6 6 7 7 7 7 4 6 6 5 6 5 5 6 6 4 3 3 3 3 3 4 3 4 3 2 2 3 3 7
4 3 3 3 3 3 4 3 4 5 5 4 5 3 3 4 5 6 5 7 7 7 8 8 9 9 9 9 9 9 9 9 9 9 8 8 6 7 7 7 7 7 7 7 7 8 7 6 7 6 5 6 7 6 7 7 8 7 7 7 5 5 7 5 5 4 4 4 4 5 3 4 3 3 3 2 3 4 3 3 3 3 3 2 3
5 4 3 3 3 3 3 4 3 3 3 3 2 2 2 3 3 5 7 7 7 6 6 6 7 7 8 9 9 8 7 8 7 8 9 10 10 9 9 9 8 8 8 9 8 7 7 6 7 6 6 6 6 6 6 6 7 8 6 7 5 7 9 8 5 6 4 5 6 6 3 4 3 4 4 4 4 4 3 3 3 2 2 3 4
4 4 4 3 4 4 4 3 3 2 2 2 2 1 3 4 4 4 4 3 4 5 5 6 6 5 6 5 6 7 8 9 9 10 9 9 10 10 10 9 10 8 8 8 8 8 8 8 6 7 7 6 7 6 6 7 7 7 5 7 4 6 8 7 5 4 4 6 6 5 4 3 3 3 3 3 3 3 3 3 2 2 2 2 3
4 4 4 4 4 4 4 3 3 3 2 1 2 3 2 2 3 4 5 5 5 5 5 5 5 5 7 8 7 7 8 7 9 9 10 9 9 9 9 9 9 8 9 9 8 8 8 8 8 7 8 7 7 7 5 6 8 8 6 7 6 6 8 6 6 6 4 5 4 4 4 3 2 3 3 3 3 3 3 3 2 2 2 3 2
4 4 4 4 4 4 3 2 1 1 1 2 2 1 2 2 2 2 3 3 4 4 5 6 6 6 8 8 8 6 8 7 9 8 9 9 9 8 9 9 9 7 8 9 9 7 7 8 9 8 7 7 7 7 5 6 8 9 8 5 7 7 7 5 5 4 3 3 3 4 3 3 2 3 3 4 3 4 4 4 4 3 3 4 2
4 4 4 4 4 4 3 3 3 3 2 1 2 2 3 3 3 3 4 3 4 4 3 5 6 6 7 6 6 6 7 8 9 7 8 8 8 8 8 10 9 8 5 7 9 8 8 8 8 7 7 6 6 6 5 7 7 8 8 6 5 6 6 5 5 4 3 3 3 4 3 3 2 4 4 4 4 5 4 4 4 3 3 3 3
3 3 3 4 3 2 2 3 3 3 3 3 3 2 3 3 4 4 4 4 4 4 4 4 5 5 6 7 6 6 8 8 8 7 9 7 8 7 6 9 9 8 9 6 7 9 9 9 9 7 7 7 7 7 7 7 7 7 7 7 5 5 5 4 4 4 3 3 3 4 4 3 3 6 5 5 5 4 4 3 3 3 3 4 3
3 3 3 3 2 3 4 4 4 4 3 3 4 4 3 3 3 4 3 4 4 4 5 5 6 8 6 7 7 7 8 8 8 7 8 9 8 8 7 9 9 9 8 9 7 7 9 8 9 8 8 7 7 7 8 7 6 6 7 7 6 5 5 4 4 4 4 4 4 5 4 4 4 6 5 5 4 4 4 4 4 4 5 4 4
4 4 3 4 4 3 4 5 5 4 5 4 4 4 4 3 4 3 5 3 4 5 4 6 6 8 7 7 7 7 7 8 8 8 9 9 8 8 8 6 9 10 8 7 9 7 7 8 7 7 8 8 7 7 8 7 7 7 7 6 5 5 5 4 4 4 4 4 5 5 5 4 5 6 4 4 4 5 4 5 5 5 5 5 5
4 4 4 3 5 7 7 6 6 5 5 5 4 4 3 3 3 2 3 5 5 5 5 6 7 6 7 7 6 6 7 7 8 8 7 8 8 8 8 9 7 10 10 9 7 8 6 8 8 8 8 8 8 7 7 7 7 6 6 6 6 5 5 4 4 5 5 5 5 5 5 4 5 4 4 4 4 4 4 4 5 5 5 6 6
4 5 5 8 8 6 7 8 6 7 5 4 4 4 5 5 5 4 4 4 5 6 6 5 6 6 5 7 6 4 6 6 7 7 8 8 8 7 7 7 8 9 9 9 10 10 7 7 8 8 7 7 8 7 6 7 6 6 6 5 5 5 5 5 5 5 5 6 6 5 4 4 5 4 4 4 4 4 4 4 4 4 5 6 7
5 8 7 7 10 9 8 7 8 5 6 6 5 5 4 4 4 6 6 6 5 5 5 5 4 6 5 5 7 5 5 7 7 8 8 8 8 7 7 7 7 8 7 8 8 10 10 9 8 8 8 6 7 6 6 6 7 5 5 5 5 5 5 6 6 6 5 5 5 4 4 4 6 7 10 8 7 6 4 4 4 4 5 6 7
9 10 9 8 9 7 7 7 7 8 8 7 7 7 7 7 7 5 6 5 6 6 6 6 6 6 6 6 7 7 7 7 8 8 8 8 8 8 8 8 8 8 8 8 9 8 9 10 10 8 7 7 6 5 7 10 7 6 5 5 5 5 5 5 6 6 5 5 5 4 4 8 7 7 7 9 9 8 8 6 5 5 6 7 7
10 9 8 6 7 8 8 9 10 10 10 9 9 8 6 6 7 7 6 5 6 7 6 7 7 6 7 7 7 7 7 8 7 8 8 8 8 8 8 8 8 8 9 9 9 10 8 8 9 9 8 6 5 6 13 13 12 10 6 6 6 6 5 5 5 6 5 5 4 4 4 5 5 4 4 7 8 8 8 9 10 11 9 8 9
9 7 6 7 9 9 10 12 12 11 10 9 9 7 8 10 8 8 6 5 5 6 6 5 5 7 6 7 7 8 8 8 8 9 9 8 8 8 9 9 9 9 8 8 9 9 8 8 8 8 8 7 6 10 15 14 12 11 8 6 5 6 5 5 5 5 5 4 4 4 4 4 3 5 3 2 4 7 8 10 11 12 13 14 13
9 9 9 9 11 11 12 12 9 9 11 11 9 9 12 11 9 7 6 7 7 7 7 7 7 8 8 8 8 9 9 9 8 8 8 8 9 9 9 10 10 9 9 9 9 9 8 7 8 9 8 6 6 12 15 14 13 12 11 8 5 5 6 5 5 5 5 4 4 4 4 3 3 5 3 3 3 5 8 10 12 13 13 14 13
8 10 10 9 7 8 8 8 7 7 6 6 9 10 6 5 7 6 8 8 8 7 7 8 8 8 9 9 9 9 9 9 8 9 9 9 9 10 8 7 8 8 9 9 8 9 8 8 8 8 8 6 6 11 14 14 13 13 11 8 5 6 6 6 6 5 4 5 4 4 3 3 3 3 3 3 5 5 6 6 6 7 8 10 12
12 9 9 10 10 8 7 5 4 4 5 6 6 5 5 6 7 8 7 9 8 8 8 8 9 8 8 9 9 10 10 10 10 9 9 9 10 9 9 8 8 9 10 10 10 9 8 7 7 7 8 7 6 13 14 14 13 13 12 8 5 5 5 5 5 5 5 5 4 3 3 2 3 3 4 6 7 6 6 6 7 7 8 7 7
11 11 12 10 7 6 5 5 3 6 7 8 9 7 8 8 6 8 8 8 9 9 8 8 9 10 10 10 11 11 11 11 11 10 11 11 10 10 11 8 8 7 6 7 5 7 9 8 7 7 8 8 7 13 13 14 13 12 12 5 5 5 5 5 5 4 4 4 3 3 2 1 2 3 6 11 11 9 6 8 8 7 6 6 5
11 9 9 3 2 4 5 5 5 7 8 9 8 9 9 8 9 8 9 8 8 9 10 11 11 11 11 11 11 12 12 12 11 11 11 10 11 10 8 7 9 8 9 8 8 7 7 8 8 7 8 7 7 10 13 14 13 13 8 4 5 5 5 5 4 4 4 4 3 3 1 0 2 3 6 12 13 13 6 8 9 8 7 7 7
8 5 4 5 4 3 4 6 7 8 9 7 8 9 9 9 9 8 10 9 10 12 11 12 12 11 10 10 10 11 11 11 11 12 11 9 7 6 8 7 10 10 9 8 8 8 6 6 7 7 7 9 6 9 13 13 13 12 8 5 4 6 5 4 4 4 3 3 3 3 2 1 2 3 8 12 14 10 6 8 8 10 11 9 8
6 6 7 6 5 4 4 4 5 7 6 6 8 10 9 9 8 9 8 10 12 12 12 12 9 7 8 8 8 7 8 9 10 9 9 10 9 9 7 6 6 7 8 8 7 8 7 5 5 6 6 8 7 8 13 13 13 12 8 4 5 5 6 4 4 3 3 2 2 1 4 4 3 5 11 12 13 10 6 6 7 8 10 10 9
4 4 5 5 1 2 2 4 7 6 4 7 8 9 9 9 8 7 9 11 15 13 6 5 6 7 7 7 6 7 7 8 9 7 7 8 7 8 8 8 7 7 9 7 7 7 9 6 5 5 5 5 7 5 8 12 12 12 11 6 4 5 6 5 4 4 3 1 1 0 3 5 7 9 11 11 10 11 7 5 5 6 9 9 10
4 6 4 3 3 4 4 4 3 3 5 6 7 7 8 6 6 7 13 14 5 4 6 7 7 8 8 8 7 8 10 8 7 9 8 8 7 9 9 9 9 8 8 8 8 7 7 7 5 4 5 4 4 5 7 11 11 11 11 8 4 5 5 5 4 4 3 1 0 1 2 4 8 10 10 10 10 10 9 5 6 6 8 13 16
1 3 2 1 0 1 0 0 1 5 6 7 8 8 7 7 7 12 11 3 4 5 5 6 7 7 7 8 8 7 8 8 8 9 10 8 6 6 8 9 8 9 10 9 8 7 7 7 5 4 4 5 4 4 4 9 10 10 10 9 4 4 5 5 5 3 3 2 1 1 1 4 8 9 9 9 10 9 10 5 6 13 16 17 12
1 1 0 1 2 2 3 3 3 5 6 7 9 9 7 6 11 8 3 5 5 7 7 7 6 7 6 6 5 7 7 6 7 7 8 9 7 8 7 8 9 9 10 10 9 8 8 7 6 4 4 3 3 4 6 4 9 8 8 7 7 5 7 4 4 3 2 1 1 1 1 6 7 7 8 9 8 9 6 7 12 13 14 17 13
1 1 1 2 3 2 2 2 3 4 5 6 9 9 8 9 10 3 5 5 6 6 7 8 8 8 7 7 7 7 7 6 8 8 8 9 9 8 8 8 9 10 10 9 8 7 7 8 8 6 4 3 3 2 5 6 6 8 7 7 6 6 6 3 4 3 2 1 1 1 3 5 5 6 7 7 7 7 6 10 11 13 15 13 7
2 1 0 1 3 3 3 2 2 4 5 6 6 8 7 9 4 6 6 7 7 7 8 8 8 8 9 8 8 8 8 8 8 10 11 10 9 10 10 7 8 8 8 10 9 8 9 8 7 6 5 5 4 3 3 6 8 7 7 7 6 6 5 5 3 1 2 0 2 4 5 4 5 5 6 6 5 7 9 9 10 12 11 6 6
0 1 1 1 1 2 3 4 2 3 4 5 5 6 9 5 5 6 7 8 9 9 9 9 8 8 8 8 9 7 7 8 8 8 9 10 12 12 10 10 8 8 8 9 9 8 7 8 7 6 6 6 5 4 3 3 5 6 5 6 6 5 5 4 5 2 2 5 5 5 5 5 5 3 2 1 1 3 8 8 9 9 5 6 5
3 3 3 2 3 3 3 2 3 2 3 3 4 4 3 4 6 6 7 8 8 9 8 8 9 8 7 8 10 8 7 6 6 6 6 7 7 8 9 10 10 10 9 8 8 9 9 11 10 6 6 6 5 5 4 5 4 4 4 4 4 3 5 6 3 2 5 5 4 3 2 3 3 4 3 3 3 5 4 3 3 4 5 6 6
2 2 2 2 2 3 3 3 4 3 3 4 4 3 2 4 4 5 6 7 8 9 10 9 9 8 8 8 9 10 10 9 9 9 9 8 7 8 10 12 13 12 11 9 9 9 10 13 14 9 6 6 6 6 6 7 7 6 5 5 4 4 4 4 3 4 5 4 3 4 4 2 1 1 1 1 2 2 3 4 3 4 5 6 6
1 1 1 2 2 2 3 4 4 4 4 3 2 2 3 5 6 6 8 9 8 6 6 6 7 7 8 7 8 9 9 9 9 8 7 7 9 10 8 6 3 3 6 11 13 11 10 9 11 13 15 9 5 7 8 8 8 9 8 6 5 5 5 3 5 8 7 4 4 2 1 0 0 0 0 1 2 2 4 4 4 4 4 5 4
0 1 0 0 0 2 3 4 3 3 4 4 4 3 3 4 5 6 7 8 7 7 6 7 7 8 8 8 7 7 7 7 8 8 8 3 2 3 3 5 6 2 1 2 3 5 7 9 9 7 8 8 12 10 14 16 14 13 12 11 9 9 8 7 6 9 7 5 4 4 3 2 1 1 1 2 3 3 4 5 4 5 5 4 4
0 1 0 1 1 1 1 2 3 2 3 3 3 2 3 3 4 5 7 7 8 8 7 7 7 8 9 9 8 8 7 7 7 8 7 7 5 2 4 4 3 3 3 4 5 3 7 7 8 8 4 4 9 16 19 16 15 13 12 11 11 10 10 10 11 9 3 4 3 5 2 1 1 1 0 1 2 2 3 4 5 5 4 4 6
Wind_Direction
244 230 230 228 224 219 218 208 213 213 213 208 206 208 206 203 192 208 198 187 184 189 196 197 200 205 213 211 213 198 197 202 212 205 199 201 196 196 191 193 193 196 201 194 216 202 196 204 207 233 190 186 210 223 223 247 229 208 207 171 235 285 300 226 230 183 286 303 272 262 293 259 266 281 294 312 315 302 308 316 321 327 315 316 312
279 265 241 228 222 215 207 207 204 208 216 206 208 211 208 204 206 207 185 192 194 194 194 199 202 205 200 209 201 191 192 203 216 204 206 200 197 193 192 192 195 196 199 207 217 233 222 202 200 217 205 219 220 223 233 221 231 207 162 260 187 230 258 218 188 122 319 251 330 318 272 271 270 305 349 316 315 306 332 323 319 319 309 311 314
250 245 242 227 225 220 207 209 211 213 213 207 211 210 209 209 212 204 197 193 198 195 191 203 200 204 199 197 193 204 205 206 212 207 196 199 196 189 185 181 180 194 203 206 218 214 212 208 215 215 216 211 219 234 231 247 236 226 193 216 252 201 249 306 202 184 249 250 269 332 333 341 346 357 347 337 287 305 331 318 323 320 305 303 307
249 239 236 227 218 220 216 216 215 210 212 210 212 213 210 211 209 206 205 199 197 197 199 201 195 195 200 192 202 196 193 204 210 203 195 197 205 194 190 180 176 193 195 201 216 213 207 212 213 206 229 206 205 222 223 236 229 219 197 219 202 273 227 293 214 189 194 45 338 124 304 25 322 332 339 306 299 290 301 294 315 301 305 312 328
241 245 242 224 215 217 210 215 207 207 208 210 209 208 208 208 208 205 204 201 199 195 196 189 170 167 160 114 124 141 63 169 196 211 199 194 188 184 194 183 188 193 206 207 202 210 212 223 210 211 215 205 198 216 230 229 221 215 204 196 188 219 250 234 21 11 136 349 212 0 347 9 243 318 342 303 347 349 330 331 330 314 311 311 306
232 238 237 221 220 227 230 223 210 212 214 215 208 209 206 209 208 206 205 200 201 198 190 179 184 183 176 182 178 195 208 192 205 199 183 193 195 172 190 190 196 202 215 216 206 205 216 203 209 210 218 181 179 211 227 204 211 196 199 195 201 204 218 170 271 351 238 117 142 68 177 249 311 329 346 304 348 286 312 336 329 327 331 341 328
236 247 251 236 223 216 223 215 211 212 220 210 208 207 206 209 205 201 201 203 200 193 182 178 188 194 197 201 203 205 213 221 188 175 176 180 171 185 189 189 197 203 219 213 212 210 208 227 231 200 175 166 172 182 186 200 210 205 172 177 169 142 145 177 163 244 50 58 79 245 355 247 161 350 282 299 318 330 347 327 320 319 332 338 326
230 230 233 234 229 211 220 217 211 213 214 203 206 203 207 208 200 199 201 202 196 184 179 183 190 196 201 207 208 211 211 211 173 179 170 161 179 195 185 193 199 207 216 218 211 200 202 202 184 174 168 162 141 139 135 129 105 83 108 120 96 121 153 144 151 170 119 67 51 76 29 344 243 220 241 259 273 305 305 280 263 324 320 301 301
230 240 235 228 224 222 222 219 220 223 214 203 206 206 208 207 205 201 202 198 194 184 184 189 194 195 199 201 207 215 211 198 160 151 167 167 183 185 199 201 197 203 211 212 214 200 179 176 165 155 146 130 115 127 134 126 120 131 107 95 108 88 92 153 134 110 102 129 125 36 97 141 318 174 159 63 341 305 292 298 307 290 278 289 276
236 236 241 237 228 228 226 240 232 216 212 211 209 202 205 199 203 200 206 196 193 189 187 192 196 193 198 201 206 207 190 157 163 160 166 166 179 182 182 179 174 173 188 199 189 175 159 158 137 125 124 135 135 118 128 121 116 100 105 133 127 114 142 123 94 100 103 93 74 100 63 345 18 11 34 2 264 243 293 309 311 325 324 296 309
254 251 251 250 244 234 217 216 224 223 211 200 202 199 196 198 199 201 204 196 192 192 189 195 195 196 201 200 202 201 187 172 170 173 150 161 170 171 176 179 168 162 150 135 137 143 142 140 139 140 137 145 119 120 131 123 124 118 124 112 108 126 122 100 99 92 95 87 78 73 73 71 58 21 338 1 351 314 314 296 312 316 306 312 252
275 271 265 262 267 259 222 228 220 218 204 207 203 196 197 200 196 204 203 196 191 192 193 198 194 199 204 200 201 200 183 182 186 184 178 178 173 170 163 147 150 140 149 142 137 129 128 118 110 111 114 109 107 116 126 132 121 125 123 118 112 94 89 89 91 89 79 77 70 63 58 58 59 40 19 4 340 322 312 293 304 314 291 227 291
283 273 268 260 242 236 226 231 219 217 210 206 205 200 201 199 198 201 208 195 193 191 196 196 195 200 199 201 203 194 188 190 190 188 181 178 170 156 158 164 151 145 166 146 154 145 137 129 130 127 122 125 122 114 116 112 117 117 117 99 96 95 96 97 91 76 66 75 83 54 54 51 55 42 30 29 5 329 293 304 273 274 281 297 276
272 266 261 254 243 234 225 216 212 212 214 208 204 198 200 200 201 203 212 195 195 192 195 195 201 200 198 200 198 186 192 191 193 184 181 178 171 170 171 167 170 173 169 173 162 141 123 122 121 118 130 113 109 112 106 100 101 102 93 93 80 76 82 81 83 82 75 70 78 89 74 71 67 45 30 27 25 346 337 323 320 294 242 282 299
252 254 252 253 259 258 248 238 225 217 211 210 204 204 187 203 198 206 209 201 192 197 193 199 201 199 199 199 195 188 191 191 191 183 173 172 176 171 177 172 172 171 167 147 145 131 127 122 124 126 109 115 114 103 94 89 87 85 81 84 75 73 81 89 86 97 90 83 73 74 73 57 37 23 23 38 26 24 4 352 356 341 328 233 264
254 247 264 270 266 289 288 276 261 236 236 222 203 193 194 210 207 209 210 200 199 197 201 199 201 196 194 194 196 190 188 184 179 173 175 175 173 174 173 172 164 147 133 137 140 136 133 122 114 106 112 108 103 103 100 94 90 94 92 89 86 69 90 81 85 87 78 74 71 65 71 53 35 26 32 33 33 31 26 25 18 11 353 324 323
265 250 250 268 304 289 258 262 263 241 235 215 210 198 196 197 199 213 224 220 205 204 201 199 198 192 197 195 190 186 182 181 177 175 173 172 167 165 160 151 137 143 143 140 134 123 123 120 115 112 108 110 103 101 102 103 105 103 105 103 92 76 83 79 69 76 72 74 72 64 70 62 38 30 45 40 37 39 36 20 6 24 345 307 324
258 260 259 261 263 270 273 251 231 219 209 219 234 217 218 200 189 195 199 203 213 205 204 199 195 197 193 195 191 187 182 180 172 170 162 152 148 137 127 136 150 144 138 134 127 125 117 117 117 114 112 106 111 109 109 113 111 97 103 91 96 99 93 80 65 77 67 68 78 73 62 61 18 31 39 39 47 40 41 22 22 345 343 313 289
264 253 259 263 256 256 254 248 258 254 240 241 257 200 231 242 219 193 202 210 206 206 204 205 200 195 192 190 185 181 179 173 167 159 155 155 155 154 154 145 132 136 134 133 129 124 122 118 120 119 114 111 107 111 113 110 111 107 99 102 98 96 85 82 63 70 74 79 82 70 58 54 24 29 24 23 25 32 14 26 15 353 349 322 296
253 235 232 233 239 239 236 241 252 257 258 239 219 175 216 214 204 213 218 206 198 203 200 201 196 185 179 174 179 174 168 162 160 157 159 160 158 150 142 142 148 142 138 133 133 134 134 128 126 123 115 112 110 108 114 116 110 101 109 98 93 92 85 84 83 66 68 64 65 66 52 55 25 48 37 30 25 19 42 20 18 6 338 310 298
257 246 234 231 233 237 242 252 267 290 276 268 231 207 212 202 226 213 206 200 201 195 186 189 166 171 162 168 164 162 162 157 155 162 155 152 148 145 146 141 133 140 138 135 136 137 134 131 129 122 121 126 126 127 130 122 103 98 83 97 94 85 89 82 84 67 60 75 89 88 74 50 68 68 58 45 42 31 29 27 28 45 333 310 318
255 252 238 248 256 259 270 291 287 277 230 217 247 236 188 190 209 198 221 215 203 187 186 166 169 164 170 164 165 161 153 150 149 146 143 142 144 142 136 134 138 139 139 135 132 132 130 131 123 120 124 126 129 125 131 110 105 99 86 82 85 87 87 85 83 88 75 85 100 96 73 62 59 82 68 50 42 32 31 24 11 16 346 326 308
263 244 238 234 235 238 232 237 239 231 233 227 248 218 200 195 184 187 191 200 186 180 168 164 157 161 159 152 145 145 141 144 140 138 136 137 134 132 140 136 135 133 123 129 133 132 133 124 120 128 131 129 124 114 104 101 100 102 103 92 90 96 103 106 100 101 104 113 96 86 71 59 56 65 55 45 36 30 23 20 355 340 340 313 306
277 260 248 238 237 252 266 252 251 256 246 227 224 232 213 198 186 170 177 163 147 156 152 148 143 133 133 133 138 138 140 141 139 139 135 132 132 132 132 126 127 128 125 117 126 131 125 127 128 128 125 121 110 103 95 94 103 109 109 109 106 103 105 109 114 115 114 105 101 85 61 51 47 54 43 34 28 23 16 3 343 332 327 320 308
283 273 263 276 263 242 235 233 229 228 229 224 219 219 205 206 195 169 158 155 139 135 138 131 138 134 135 139 142 146 143 137 131 130 131 131 132 130 128 130 127 121 123 126 123 121 125 131 130 129 124 113 111 111 106 101 101 104 109 111 111 112 114 118 116 117 117 107 88 79 68 57 50 55 35 32 19 13 1 357 350 337 335 318 314
281 278 291 261 249 249 249 239 234 230 218 213 211 211 207 199 202 181 149 138 142 131 138 138 141 142 143 145 147 140 137 134 132 131 135 133 131 129 126 122 129 127 128 131 131 131 129 123 118 119 114 111 111 109 110 114 111 107 103 106 114 117 119 115 114 107 98 85 84 74 67 62 55 56 35 21 18 6 358 355 347 339 330 323 318
270 258 254 286 267 242 236 237 230 223 217 215 206 205 204 194 190 174 172 159 159 150 149 151 149 151 145 143 141 134 132 132 133 131 128 127 126 128 131 133 136 137 137 133 126 118 116 116 117 113 112 115 112 109 111 111 110 108 113 118 120 117 115 110 100 93 81 78 72 71 64 58 57 51 40 23 12 1 359 349 337 333 326 323 319
273 266 249 240 244 247 237 234 230 229 220 216 214 212 197 186 187 177 167 166 165 156 157 157 151 140 141 133 122 124 127 128 126 127 128 126 126 129 130 131 137 136 131 130 130 122 118 112 113 108 110 111 111 109 109 109 109 115 120 120 122 124 117 102 92 80 74 69 70 66 62 54 53 45 42 25 15 358 355 347 329 329 322 320 318
260 252 244 238 238 234 233 230 231 225 222 213 205 213 221 213 195 181 172 180 166 158 157 153 145 141 135 129 126 118 116 123 127 126 127 130 131 130 130 132 129 119 114 117 119 121 120 112 106 110 111 108 107 113 116 120 121 121 120 119 121 113 107 103 91 81 72 72 68 62 58 48 43 44 33 21 8 2 354 340 322 322 318 317 314
252 243 235 232 238 238 232 228 226 218 215 207 202 203 200 196 196 193 184 175 154 162 155 152 153 148 142 145 140 138 136 132 131 134 137 135 136 136 134 128 122 117 118 121 119 119 120 124 120 114 109 109 111 115 130 126 122 126 128 123 112 104 104 103 101 96 85 74 68 61 55 48 49 45 31 13 5 358 348 337 323 323 321 316 312
250 251 240 229 233 233 230 226 227 215 212 205 203 198 192 198 198 190 189 175 167 164 166 161 156 150 147 140 137 138 136 140 141 138 140 141 139 136 130 124 122 124 125 126 125 124 125 126 126 126 120 115 117 125 128 122 121 124 126 122 117 114 106 101 99 94 91 87 72 67 67 56 61 42 23 6 357 351 342 335 328 325 322 321 319
260 259 250 234 229 228 225 227 224 216 206 204 198 190 187 202 192 188 179 160 169 163 162 165 147 145 148 149 146 143 145 147 148 151 147 142 138 136 133 131 130 129 129 129 127 129 128 128 121 116 114 118 121 125 121 117 116 118 119 116 116 113 108 102 97 92 91 79 72 64 56 59 45 21 3 347 327 328 327 328 327 324 323 319 312
254 255 251 240 233 227 225 229 223 210 206 205 187 182 201 196 183 180 149 165 172 168 165 162 156 159 161 158 154 155 153 153 155 148 145 144 144 139 139 141 141 138 134 134 136 132 131 128 125 122 120 123 122 126 122 118 116 116 116 114 112 112 107 103 97 93 86 83 74 63 54 40 34 3 350 332 307 298 304 311 319 324 321 317 315
256 247 247 256 250 244 239 234 227 220 210 192 192 200 197 169 165 154 164 170 168 172 169 166 163 170 166 161 161 158 157 157 151 151 152 152 150 150 147 139 134 135 134 132 133 132 132 130 129 125 124 126 119 127 125 121 119 118 117 114 113 109 102 97 93 88 85 79 71 67 55 23 8 344 324 322 309 299 307 318 324 324 317 316 315
246 258 254 249 249 248 244 243 228 191 175 171 195 189 153 157 162 166 172 169 177 170 174 170 172 172 168 165 165 164 159 158 159 159 159 159 154 147 144 145 145 145 146 147 146 140 137 131 129 128 124 123 123 129 127 125 123 121 118 115 111 107 102 97 89 84 85 75 69 67 51 29 351 328 316 335 324 326 329 327 321 314 313 309 310
239 237 248 245 247 245 243 237 178 163 181 184 189 172 166 173 165 171 172 177 173 175 178 173 179 178 177 175 169 168 165 164 164 164 164 161 157 155 149 146 133 124 117 119 115 126 135 135 133 133 127 120 126 130 130 128 126 124 120 114 114 109 108 103 95 95 87 77 79 64 53 25 312 316 315 342 343 339 333 324 319 312 310 313 303
250 239 253 278 226 209 213 182 175 179 177 192 177 169 168 161 171 179 172 175 174 183 186 185 187 184 182 178 175 169 169 169 168 167 166 162 156 152 145 142 134 139 139 139 139 137 137 137 139 140 129 122 123 134 136 132 128 125 120 116 118 113 108 111 107 101 95 85 79 58 72 187 286 284 318 344 341 343 332 325 320 321 321 316 302
252 274 268 264 257 223 202 177 183 192 193 177 167 167 168 172 178 173 174 179 183 196 195 192 192 184 179 176 178 174 171 171 171 173 166 156 143 134 147 155 147 146 141 141 136 128 129 135 140 140 138 129 127 136 139 136 130 127 128 127 125 123 119 122 120 106 98 89 64 48 19 230 278 291 338 345 343 346 334 329 328 328 325 318 307
252 253 267 265 254 212 198 181 171 198 198 165 164 165 167 180 180 181 181 185 199 202 197 194 185 173 176 173 172 171 171 170 171 167 158 154 156 153 143 133 133 131 132 134 132 128 124 120 127 130 127 122 126 136 141 137 131 126 127 128 128 127 130 135 131 111 104 96 63 11 4 6 358 341 346 345 345 346 335 337 340 327 316 312 315
276 275 243 261 230 115 123 177 200 212 157 165 160 167 178 183 184 171 186 201 208 205 177 153 158 161 160 161 164 164 166 168 167 151 148 150 142 139 147 138 132 133 135 133 127 127 128 127 128 125 124 125 127 128 139 140 137 133 130 134 139 136 133 133 122 124 109 64 102 342 328 348 356 346 346 346 345 345 344 349 335 313 306 311 334
256 262 284 233 206 201 202 208 204 147 152 157 157 163 187 186 173 180 209 213 196 137 153 164 154 157 162 165 162 168 166 166 162 156 148 144 151 150 143 141 137 131 126 127 129 129 124 125 125 125 123 123 129 130 139 139 137 136 134 134 146 131 131 128 125 124 114 117 60 322 305 336 346 346 348 346 347 349 349 349 314 307 325 324 329
219 273 297 252 182 247 17 93 137 149 155 157 161 176 183 182 179 212 216 134 135 150 143 150 157 161 163 164 165 161 160 158 151 149 149 146 136 133 140 138 136 138 137 135 137 135 133 129 129 129 128 129 128 125 128 138 138 137 133 130 134 139 132 127 124 124 123 114 120 258 250 331 349 351 351 349 351 351 344 331 324 330 328 330 333
354 29 23 147 168 195 207 200 174 157 162 165 166 179 184 183 210 217 142 140 143 145 145 146 148 153 157 154 151 151 149 144 147 148 144 140 139 138 138 139 140 140 141 143 147 147 142 139 137 139 136 128 126 128 128 131 139 134 128 126 128 120 114 125 124 122 118 129 211 235 328 356 358 357 355 353 352 345 344 333 335 335 338 338 337
264 241 259 172 176 173 175 180 163 163 164 171 172 182 188 198 218 141 139 135 141 140 142 146 152 154 149 151 150 147 142 143 147 145 143 144 148 148 147 155 156 151 151 151 156 155 151 152 153 150 147 141 138 123 146 144 141 135 135 133 124 120 120 131 126 134 114 107 144 32 12 6 13 8 0 354 346 343 337 337 341 343 344 339 323
249 277 298 175 180 177 158 149 172 169 172 175 182 182 187 207 193 142 148 147 142 145 149 155 157 158 158 154 149 153 154 156 160 157 155 158 156 157 155 168 160 160 161 159 165 169 169 165 155 151 151 154 149 153 157 157 151 143 144 139 129 124 114 102 101 118 113 144 43 36 30 32 25 15 6 355 351 337 335 341 344 347 343 317 318
190 225 223 161 125 139 154 171 197 189 177 176 187 179 193 202 147 151 149 149 149 150 158 162 161 160 160 154 154 157 160 163 165 173 174 171 165 167 164 163 168 171 172 168 168 174 173 167 155 151 155 155 157 158 160 164 159 153 149 141 133 126 114 104 101 92 78 68 53 49 43 42 31 11 38 351 1 320 338 340 344 340 317 312 302
195 219 158 140 143 151 184 181 203 234 190 184 182 200 183 141 157 150 149 148 154 159 160 161 162 160 155 162 163 164 161 161 166 166 168 171 175 170 165 167 174 173 175 175 173 173 171 166 161 153 146 152 153 165 168 166 172 171 163 152 135 129 128 113 93 99 86 71 61 62 59 51 40 16 21 358 353 331 325 317 313 300 298 295 299
223 206 188 159 163 178 182 189 218 229 193 177 176 183 141 133 138 145 143 148 158 169 167 171 167 163 167 170 172 166 165 170 177 175 171 177 191 187 177 178 179 180 173 180 178 179 179 177 165 147 150 148 163 175 181 175 174 171 171 160 148 158 150 127 156 118 107 93 78 53 48 24 15 9 343 353 302 299 300 297 294 294 284 292 304
196 255 166 183 186 195 200 192 222 212 171 147 140 124 141 148 155 154 155 157 167 167 157 157 160 157 170 174 174 175 178 177 177 186 197 192 184 185 188 195 227 217 202 181 179 185 189 181 170 165 143 142 165 190 192 176 169 166 166 157 161 162 141 144 160 136 103 85 84 73 96 122 172 140 325 330 316 324 317 308 302 292 303 313 305
339 64 116 25 155 185 195 210 229 197 147 146 149 157 165 161 154 159 158 161 157 153 156 171 172 176 176 173 176 177 180 180 181 180 174 159 79 168 198 196 191 170 160 343 225 200 185 164 162 174 173 174 192 187 167 170 169 167 166 164 165 161 155 153 157 136 122 110 127 146 163 152 117 70 19 355 337 336 322 320 310 327 325 312 307
78 108 41 198 239 227 223 237 235 210 139 134 139 151 159 162 164 164 167 165 157 164 176 177 178 188 185 182 178 179 181 181 182 182 178 172 149 125 132 138 158 173 176 189 181 161 151 170 164 153 180 174 144 151 163 165 165 165 163 163 161 161 156 154 147 127 92 119 147 149 158 152 147 123 136 295 311 314 308 311 315 315 303 307 308